| time (UTC) | temp F | wind direction | speed MPH | gust MPH | rain 1hr in | rain 24hr in | rain mn in | humidity % | barometer mb |
| 20260906143211 | 71 | 207 | 4.0 | 12.0 | 0.00 | 0.06 | 0.06 | 77 | 1014.5 |
| 20260906142711 | 70 | 195 | 4.0 | 10.0 | 0.00 | 0.06 | 0.06 | 79 | 1014.6 |
| 20260906142209 | 70 | 197 | 5.0 | 11.0 | 0.00 | 0.06 | 0.06 | 80 | 1014.7 |
| 20260906141709 | 70 | 199 | 4.0 | 11.0 | 0.00 | 0.06 | 0.06 | 79 | 1014.6 |
| 20260906141207 | 71 | 213 | 4.0 | 10.0 | 0.00 | 0.06 | 0.06 | 79 | 1014.6 |
| 20260906140712 | 71 | 233 | 4.0 | 10.0 | 0.00 | 0.06 | 0.06 | 80 | 1014.8 |
| 20260906140211 | 71 | 186 | 5.0 | 12.0 | 0.00 | 0.06 | 0.06 | 82 | 1014.8 |
| 20260906135709 | 69 | 188 | 6.0 | 16.0 | 0.00 | 0.06 | 0.06 | 84 | 1014.8 |
| 20260906135443 | 67 | 199 | 5.0 | 16.0 | 0.00 | 0.06 | 0.06 | 83 | 1014.8 |
| 20260906134712 | 68 | 186 | 8.0 | 14.0 | 0.00 | 0.06 | 0.06 | 82 | 1014.9 |
| 20260906134207 | 68 | 182 | 8.0 | 14.0 | 0.00 | 0.06 | 0.06 | 83 | 1014.9 |
| 20260906133706 | 68 | 199 | 7.0 | 14.0 | 0.00 | 0.06 | 0.06 | 84 | 1015.1 |
| 20260906133204 | 67 | 204 | 6.0 | 10.0 | 0.00 | 0.06 | 0.06 | 85 | 1015.3 |
| 20260906132705 | 66 | 183 | 6.0 | 12.0 | 0.00 | 0.06 | 0.06 | 87 | 1015.4 |
| 20260906132204 | 65 | 179 | 5.0 | 12.0 | 0.00 | 0.06 | 0.06 | 86 | 1015.4 |
| 20260906131705 | 65 | 204 | 7.0 | 13.0 | 0.00 | 0.06 | 0.06 | 84 | 1015.4 |
| 20260906131203 | 66 | 154 | 7.0 | 14.0 | 0.00 | 0.06 | 0.06 | 85 | 1015.5 |
| 20260906130704 | 66 | 154 | 8.0 | 15.0 | 0.00 | 0.06 | 0.06 | 85 | 1015.4 |
| 20260906130203 | 66 | 203 | 9.0 | 15.0 | 0.00 | 0.06 | 0.06 | 88 | 1015.5 |
| 20260906125703 | 64 | 192 | 6.0 | 11.0 | 0.00 | 0.06 | 0.06 | 89 | 1015.4 |
| 20260906125203 | 64 | 197 | 6.0 | 11.0 | 0.00 | 0.06 | 0.06 | 89 | 1015.7 |
| 20260906124705 | 63 | 169 | 6.0 | 11.0 | 0.00 | 0.06 | 0.06 | 90 | 1015.7 |
| 20260906124427 | 62 | 192 | 5.0 | 11.0 | 0.00 | 0.06 | 0.06 | 91 | 1015.8 |
| 20260906123703 | 61 | 203 | 6.0 | 11.0 | 0.00 | 0.06 | 0.06 | 90 | 1015.9 |
| 20260906123202 | 61 | 166 | 7.0 | 11.0 | 0.01 | 0.06 | 0.06 | 91 | 1015.8 |
| 20260906122701 | 62 | 179 | 6.0 | 12.0 | 0.02 | 0.06 | 0.06 | 92 | 1015.9 |
| 20260906122201 | 61 | 180 | 6.0 | 12.0 | 0.02 | 0.06 | 0.06 | 92 | 1015.9 |
| 20260906121700 | 60 | 161 | 4.0 | 9.0 | 0.02 | 0.06 | 0.06 | 93 | 1015.9 |
| 20260906121201 | 60 | 173 | 4.0 | 10.0 | 0.03 | 0.06 | 0.06 | 93 | 1016.1 |
| 20260906120923 | 59 | 193 | 4.0 | 10.0 | 0.04 | 0.06 | 0.06 | 93 | 1016.2 |
| 20260906120159 | 58 | 173 | 3.0 | 11.0 | 0.05 | 0.06 | 0.06 | 92 | 1016.3 |
| 20260906115659 | 59 | 189 | 6.0 | 12.0 | 0.05 | 0.02 | 0.06 | 92 | 1016.5 |
| 20260906115422 | 59 | 200 | 6.0 | 17.0 | 0.05 | 0.02 | 0.06 | 92 | 1016.5 |
| 20260906114701 | 59 | 209 | 8.0 | 17.0 | 0.05 | 0.02 | 0.06 | 91 | 1016.6 |
| 20260906114158 | 59 | 209 | 9.0 | 11.0 | 0.05 | 0.02 | 0.06 | 91 | 1016.7 |
| 20260906113655 | 58 | 207 | 6.0 | 14.0 | 0.05 | 0.02 | 0.06 | 91 | 1016.8 |
| 20260906113150 | 58 | 203 | 9.0 | 14.0 | 0.04 | 0.02 | 0.06 | 90 | 1016.9 |
| 20260906112652 | 58 | 206 | 7.0 | 14.0 | 0.03 | 0.02 | 0.05 | 90 | 1016.8 |
| 20260906112413 | 59 | 200 | 10.0 | 14.0 | 0.03 | 0.02 | 0.05 | 89 | 1016.9 |
| 20260906111647 | 59 | 212 | 6.0 | 14.0 | 0.04 | 0.02 | 0.04 | 89 | 1017.0 |
| 20260906111147 | 59 | 209 | 8.0 | 16.0 | 0.02 | 0.02 | 0.03 | 88 | 1016.9 |
| 20260906110649 | 59 | 209 | 8.0 | 17.0 | 0.01 | 0.02 | 0.02 | 88 | 1016.9 |
| 20260906110409 | 59 | 207 | 7.0 | 17.0 | 0.01 | 0.02 | 0.02 | 88 | 1016.9 |
| 20260906105916 | 59 | 212 | 8.0 | 14.0 | 0.01 | 0.01 | 0.02 | 89 | 1017.0 |
| 20260906105146 | 59 | 200 | 7.0 | 14.0 | 0.01 | 0.01 | 0.02 | 89 | 1017.1 |
| 20260906104650 | 59 | 227 | 6.0 | 13.0 | 0.02 | 0.01 | 0.02 | 88 | 1017.2 |
| 20260906104147 | 59 | 216 | 6.0 | 13.0 | 0.02 | 0.01 | 0.02 | 89 | 1017.1 |
| 20260906103914 | 59 | 217 | 6.0 | 10.0 | 0.02 | 0.01 | 0.02 | 89 | 1017.1 |
| 20260906103144 | 59 | 231 | 5.0 | 10.0 | 0.02 | 0.01 | 0.02 | 88 | 1017.3 |
| 20260906102644 | 59 | 216 | 4.0 | 11.0 | 0.02 | 0.01 | 0.02 | 88 | 1017.3 |
| 20260906102140 | 59 | 220 | 6.0 | 13.0 | 0.02 | 0.01 | 0.02 | 87 | 1017.4 |
| 20260906101640 | 59 | 203 | 6.0 | 13.0 | 0.01 | 0.01 | 0.01 | 87 | 1017.4 |
| 20260906101139 | 59 | 221 | 6.0 | 14.0 | 0.01 | 0.01 | 0.01 | 86 | 1017.4 |
| 20260906100639 | 59 | 245 | 7.0 | 14.0 | 0.01 | 0.01 | 0.01 | 86 | 1017.4 |
| 20260906100137 | 60 | 203 | 8.0 | 15.0 | 0.01 | 0.01 | 0.01 | 85 | 1017.5 |
| 20260906095638 | 60 | 189 | 8.0 | 16.0 | 0.01 | 0.00 | 0.01 | 85 | 1017.5 |
| 20260906095136 | 60 | 217 | 9.0 | 16.0 | 0.01 | 0.00 | 0.01 | 84 | 1017.6 |
| 20260906094635 | 61 | 214 | 3.0 | 12.0 | 0.00 | 0.00 | 0.00 | 83 | 1017.7 |
| 20260906094138 | 61 | 207 | 6.0 | 12.0 | 0.00 | 0.00 | 0.00 | 81 | 1017.7 |
| 20260906093634 | 61 | 212 | 6.0 | 12.0 | 0.00 | 0.00 | 0.00 | 80 | 1017.7 |
| 20260906093136 | 61 | 210 | 6.0 | 10.0 | 0.00 | 0.00 | 0.00 | 81 | 1017.7 |
| 20260906092634 | 61 | 206 | 5.0 | 10.0 | 0.00 | 0.00 | 0.00 | 82 | 1017.7 |
| 20260906092133 | 61 | 202 | 5.0 | 9.0 | 0.00 | 0.00 | 0.00 | 82 | 1017.7 |
| 20260906091631 | 61 | 212 | 4.0 | 7.0 | 0.00 | 0.00 | 0.00 | 82 | 1017.7 |
| 20260906091132 | 61 | 203 | 4.0 | 7.0 | 0.00 | 0.00 | 0.00 | 82 | 1017.7 |
| 20260906090631 | 61 | 204 | 2.0 | 9.0 | 0.00 | 0.00 | 0.00 | 82 | 1017.7 |
| 20260906085631 | 60 | 196 | 3.0 | 9.0 | 0.00 | 0.00 | 0.00 | 83 | 1017.5 |
| 20260906085132 | 60 | 176 | 4.0 | 9.0 | 0.00 | 0.00 | 0.00 | 83 | 1017.6 |
| 20260906084628 | 60 | 188 | 4.0 | 10.0 | 0.00 | 0.00 | 0.00 | 83 | 1017.6 |
| 20260906084349 | 60 | 196 | 6.0 | 10.0 | 0.00 | 0.00 | 0.00 | 83 | 1017.6 |
| 20260906083348 | 60 | 197 | 6.0 | 10.0 | 0.00 | 0.00 | 0.00 | 84 | 1017.5 |
| 20260906082852 | 59 | 212 | 6.0 | 9.0 | 0.00 | 0.00 | 0.00 | 85 | 1017.6 |
| 20260906082125 | 59 | 202 | 4.0 | 9.0 | 0.00 | 0.00 | 0.00 | 86 | 1017.5 |
| 20260906081623 | 59 | 199 | 3.0 | 6.0 | 0.00 | 0.00 | 0.00 | 88 | 1017.7 |
| 20260906081129 | 58 | 199 | 4.0 | 6.0 | 0.00 | 0.00 | 0.00 | 88 | 1017.6 |
| 20260906080623 | 58 | 212 | 4.0 | 6.0 | 0.00 | 0.00 | 0.00 | 89 | 1017.6 |
| 20260906080122 | 57 | 212 | 4.0 | 6.0 | 0.00 | 0.00 | 0.00 | 90 | 1017.6 |
| 20260906075622 | 57 | 190 | 2.0 | 6.0 | 0.00 | 0.00 | 0.00 | 91 | 1017.7 |
| 20260906075120 | 56 | 180 | 3.0 | 6.0 | 0.00 | 0.00 | 0.00 | 92 | 1017.7 |
| 20260906074619 | 56 | 178 | 4.0 | 6.0 | 0.00 | 0.00 | 0.00 | 93 | 1017.7 |
| 20260906074338 | 55 | 182 | 3.0 | 6.0 | 0.00 | 0.00 | 0.00 | 93 | 1017.7 |
| 20260906073621 | 55 | 172 | 3.0 | 6.0 | 0.00 | 0.00 | 0.00 | 94 | 1017.7 |
| 20260906073117 | 54 | 220 | 3.0 | 5.0 | 0.00 | 0.00 | 0.00 | 94 | 1017.8 |
| 20260906072839 | 54 | 221 | 3.0 | 6.0 | 0.00 | 0.00 | 0.00 | 94 | 1017.9 |
| 20260906072116 | 53 | 221 | 4.0 | 6.0 | 0.00 | 0.00 | 0.00 | 94 | 1017.8 |
| 20260906071616 | 53 | 190 | 4.0 | 6.0 | 0.00 | 0.00 | 0.00 | 94 | 1017.9 |
| 20260906071115 | 53 | 206 | 3.0 | 6.0 | 0.00 | 0.00 | 0.00 | 94 | 1017.9 |
| 20260906070837 | 52 | 213 | 2.0 | 4.0 | 0.00 | 0.00 | 0.00 | 95 | 1018.0 |
| 20260906070113 | 52 | 213 | 3.0 | 4.0 | 0.00 | 0.00 | 0.00 | 94 | 1018.2 |
| 20260906065614 | 52 | 214 | 2.0 | 4.0 | 0.00 | 0.00 | 0.00 | 94 | 1018.1 |
| 20260906065113 | 52 | 214 | 2.0 | 3.0 | 0.00 | 0.00 | 0.00 | 94 | 1018.2 |
| 20260906064613 | 52 | 214 | 2.0 | 4.0 | 0.00 | 0.00 | 0.00 | 94 | 1018.2 |
| 20260906064113 | 52 | 214 | 2.0 | 4.0 | 0.00 | 0.00 | 0.00 | 94 | 1018.2 |
| 20260906063610 | 52 | 214 | 2.0 | 5.0 | 0.00 | 0.00 | 0.00 | 94 | 1018.2 |
| 20260906063109 | 52 | 214 | 3.0 | 5.0 | 0.00 | 0.00 | 0.00 | 95 | 1018.2 |
| 20260906062609 | 52 | 216 | 3.0 | 6.0 | 0.00 | 0.00 | 0.00 | 95 | 1018.3 |
| 20260906062110 | 52 | 216 | 4.0 | 6.0 | 0.00 | 0.00 | 0.00 | 95 | 1018.4 |
| 20260906061610 | 51 | 220 | 4.0 | 6.0 | 0.00 | 0.01 | 0.00 | 95 | 1018.4 |
| 20260906061333 | 51 | 219 | 4.0 | 6.0 | 0.00 | 0.01 | 0.00 | 95 | 1018.5 |
| 20260906060611 | 51 | 207 | 4.0 | 6.0 | 0.00 | 0.01 | 0.00 | 95 | 1018.5 |
| 20260906060108 | 50 | 223 | 4.0 | 6.0 | 0.00 | 0.01 | 0.00 | 95 | 1018.5 |
| 20260906055606 | 50 | 226 | 3.0 | 4.0 | 0.00 | 0.01 | 0.00 | 94 | 1018.5 |
| 20260906055106 | 50 | 224 | 2.0 | 4.0 | 0.00 | 0.01 | 0.00 | 94 | 1018.4 |
| 20260906054606 | 49 | 224 | 3.0 | 4.0 | 0.00 | 0.01 | 0.00 | 94 | 1018.3 |
| 20260906054106 | 49 | 224 | 2.0 | 4.0 | 0.00 | 0.01 | 0.00 | 94 | 1018.4 |
| 20260906053606 | 49 | 226 | 2.0 | 3.0 | 0.00 | 0.01 | 0.00 | 94 | 1018.4 |
| 20260906053103 | 49 | 226 | 2.0 | 4.0 | 0.00 | 0.01 | 0.00 | 94 | 1018.5 |
| 20260906052604 | 49 | 226 | 2.0 | 4.0 | 0.00 | 0.01 | 0.00 | 94 | 1018.7 |
| 20260906052105 | 49 | 226 | 3.0 | 4.0 | 0.00 | 0.01 | 0.00 | 94 | 1018.8 |
| 20260906051603 | 49 | 226 | 3.0 | 4.0 | 0.00 | 0.01 | 0.00 | 94 | 1018.8 |
| 20260906051325 | 49 | 226 | 2.0 | 4.0 | 0.00 | 0.01 | 0.00 | 94 | 1018.8 |
| 20260906050603 | 49 | 226 | 2.0 | 4.0 | 0.00 | 0.01 | 0.00 | 94 | 1018.8 |
| 20260906050104 | 49 | 226 | 3.0 | 4.0 | 0.00 | 0.01 | 0.00 | 94 | 1018.9 |
| 20260906045603 | 49 | 226 | 2.0 | 4.0 | 0.00 | 0.01 | 0.00 | 94 | 1018.8 |
| 20260906045102 | 49 | 226 | 2.0 | 4.0 | 0.00 | 0.01 | 0.00 | 94 | 1018.9 |
| 20260906044603 | 49 | 226 | 2.0 | 4.0 | 0.00 | 0.01 | 0.00 | 94 | 1019.1 |
| 20260906044102 | 49 | 226 | 2.0 | 4.0 | 0.00 | 0.01 | 0.00 | 93 | 1019.1 |
| 20260906043822 | 49 | 226 | 2.0 | 3.0 | 0.00 | 0.01 | 0.00 | 93 | 1019.1 |
| 20260906043102 | 49 | 226 | 2.0 | 3.0 | 0.00 | 0.01 | 0.00 | 93 | 1019.2 |
| 20260906042603 | 49 | 226 | 2.0 | 3.0 | 0.00 | 0.01 | 0.00 | 93 | 1019.2 |
| 20260906042102 | 49 | 226 | 2.0 | 2.0 | 0.00 | 0.01 | 0.00 | 93 | 1019.3 |
| 20260906041823 | 50 | 226 | 1.0 | 2.0 | 0.00 | 0.01 | 0.00 | 93 | 1019.3 |
| 20260906041102 | 50 | 226 | 1.0 | 2.0 | 0.00 | 0.01 | 0.00 | 93 | 1019.4 |
| 20260906040602 | 50 | 226 | 0.0 | 2.0 | 0.00 | 0.01 | 0.00 | 93 | 1019.5 |
| 20260906035603 | 50 | 226 | 1.0 | 3.0 | 0.00 | 0.01 | 0.00 | 94 | 1019.4 |
| 20260906035102 | 50 | 226 | 1.0 | 4.0 | 0.00 | 0.01 | 0.00 | 94 | 1019.5 |
| 20260906034603 | 50 | 226 | 2.0 | 4.0 | 0.00 | 0.01 | 0.00 | 94 | 1019.5 |
| 20260906034102 | 50 | 227 | 3.0 | 4.0 | 0.00 | 0.01 | 0.00 | 94 | 1019.4 |
| 20260906033604 | 50 | 227 | 2.0 | 5.0 | 0.00 | 0.01 | 0.00 | 94 | 1019.4 |
| 20260906033103 | 50 | 227 | 3.0 | 5.0 | 0.00 | 0.01 | 0.00 | 94 | 1019.4 |
| 20260906032603 | 50 | 230 | 2.0 | 5.0 | 0.00 | 0.01 | 0.00 | 94 | 1019.6 |
| 20260906032335 | 50 | 231 | 3.0 | 5.0 | 0.00 | 0.01 | 0.00 | 94 | 1019.6 |
| 20260906031835 | 50 | 234 | 3.0 | 5.0 | 0.00 | 0.01 | 0.00 | 93 | 1019.8 |
| 20260906031102 | 50 | 235 | 3.0 | 4.0 | 0.00 | 0.01 | 0.00 | 93 | 1019.8 |
| 20260906030602 | 50 | 235 | 3.0 | 4.0 | 0.00 | 0.01 | 0.00 | 93 | 1019.9 |
| 20260906025602 | 50 | 237 | 3.0 | 5.0 | 0.00 | 0.01 | 0.00 | 93 | 1020.0 |
| 20260906025102 | 49 | 237 | 4.0 | 5.0 | 0.00 | 0.01 | 0.00 | 93 | 1020.1 |
| 20260906024835 | 49 | 254 | 3.0 | 4.0 | 0.00 | 0.01 | 0.00 | 93 | 1020.2 |
| 20260906024104 | 49 | 255 | 3.0 | 4.0 | 0.00 | 0.01 | 0.00 | 93 | 1020.3 |
| 20260906023602 | 49 | 257 | 2.0 | 4.0 | 0.00 | 0.01 | 0.00 | 93 | 1020.3 |
| 20260906023102 | 49 | 257 | 2.0 | 4.0 | 0.00 | 0.01 | 0.00 | 92 | 1020.4 |
| 20260906022603 | 49 | 257 | 2.0 | 4.0 | 0.00 | 0.01 | 0.00 | 92 | 1020.5 |
| 20260906022103 | 49 | 268 | 2.0 | 4.0 | 0.00 | 0.01 | 0.00 | 92 | 1020.5 |
| 20260906021834 | 49 | 268 | 1.0 | 4.0 | 0.00 | 0.01 | 0.00 | 92 | 1020.5 |
| 20260906021104 | 49 | 268 | 1.0 | 4.0 | 0.00 | 0.01 | 0.00 | 92 | 1020.5 |
| 20260906020603 | 49 | 268 | 2.0 | 4.0 | 0.00 | 0.01 | 0.00 | 92 | 1020.6 |
| 20260906020104 | 49 | 268 | 2.0 | 4.0 | 0.00 | 0.01 | 0.00 | 92 | 1020.6 |
| 20260906015603 | 49 | 268 | 2.0 | 3.0 | 0.00 | 0.01 | 0.00 | 92 | 1020.6 |
| 20260906015102 | 49 | 268 | 2.0 | 3.0 | 0.00 | 0.01 | 0.00 | 92 | 1020.7 |
| 20260906014603 | 49 | 268 | 2.0 | 3.0 | 0.00 | 0.01 | 0.00 | 91 | 1020.8 |
| 20260906014104 | 49 | 268 | 1.0 | 4.0 | 0.00 | 0.01 | 0.00 | 91 | 1020.9 |
| 20260906013602 | 49 | 268 | 2.0 | 4.0 | 0.00 | 0.01 | 0.00 | 91 | 1020.9 |
| 20260906013330 | 49 | 268 | 2.0 | 3.0 | 0.00 | 0.01 | 0.00 | 91 | 1020.9 |
| 20260906012103 | 49 | 269 | 1.0 | 2.0 | 0.00 | 0.01 | 0.00 | 91 | 1021.1 |
| 20260906011102 | 49 | 269 | 1.0 | 2.0 | 0.00 | 0.01 | 0.00 | 90 | 1021.2 |
| 20260906010602 | 49 | 269 | 0.0 | 2.0 | 0.00 | 0.01 | 0.00 | 90 | 1021.1 |
| 20260906005601 | 49 | 269 | 1.0 | 2.0 | 0.00 | 0.01 | 0.00 | 90 | 1021.4 |
| 20260906005103 | 49 | 269 | 1.0 | 2.0 | 0.00 | 0.01 | 0.00 | 90 | 1021.4 |
| 20260906004603 | 49 | 269 | 0.0 | 1.0 | 0.00 | 0.01 | 0.00 | 90 | 1021.3 |
| 20260906004102 | 49 | 269 | 0.0 | 0.0 | 0.00 | 0.01 | 0.00 | 90 | 1021.4 |
| 20260906003602 | 49 | 269 | 0.0 | 2.0 | 0.00 | 0.01 | 0.00 | 89 | 1021.5 |
| 20260906003102 | 50 | 269 | 1.0 | 2.0 | 0.00 | 0.01 | 0.00 | 89 | 1021.5 |
| 20260906002602 | 50 | 269 | 1.0 | 2.0 | 0.00 | 0.01 | 0.00 | 89 | 1021.6 |
| 20260906002101 | 50 | 269 | 0.0 | 0.0 | 0.00 | 0.01 | 0.00 | 89 | 1021.5 |
| 20260906001602 | 50 | 269 | 0.0 | 1.0 | 0.00 | 0.01 | 0.00 | 89 | 1021.7 |
| 20260906001104 | 51 | 269 | 0.0 | 2.0 | 0.00 | 0.01 | 0.00 | 89 | 1021.7 |
| 20260906000603 | 51 | 269 | 0.0 | 2.0 | 0.00 | 0.01 | 0.00 | 89 | 1021.7 |
| 20260905235602 | 51 | 269 | 1.0 | 2.0 | 0.00 | 0.01 | 0.00 | 88 | 1021.9 |
| 20260905235102 | 51 | 269 | 1.0 | 2.0 | 0.00 | 0.01 | 0.00 | 88 | 1021.9 |
| 20260905234601 | 51 | 269 | 1.0 | 2.0 | 0.00 | 0.01 | 0.00 | 88 | 1021.9 |
| 20260905234328 | 51 | 269 | 2.0 | 2.0 | 0.00 | 0.01 | 0.00 | 88 | 1021.9 |
| 20260905233602 | 51 | 269 | 1.0 | 2.0 | 0.00 | 0.01 | 0.00 | 87 | 1022.0 |
| 20260905233104 | 52 | 269 | 1.0 | 2.0 | 0.00 | 0.01 | 0.00 | 87 | 1022.0 |
| 20260905232602 | 52 | 269 | 2.0 | 3.0 | 0.00 | 0.01 | 0.00 | 86 | 1022.1 |
| 20260905232102 | 52 | 269 | 2.0 | 3.0 | 0.00 | 0.01 | 0.00 | 86 | 1022.1 |
| 20260905231602 | 52 | 269 | 2.0 | 3.0 | 0.00 | 0.01 | 0.00 | 86 | 1022.1 |
| 20260905231102 | 53 | 269 | 2.0 | 2.0 | 0.00 | 0.01 | 0.00 | 85 | 1022.1 |
| 20260905230603 | 53 | 269 | 2.0 | 2.0 | 0.00 | 0.01 | 0.00 | 85 | 1022.1 |
| 20260905230325 | 53 | 269 | 1.0 | 2.0 | 0.00 | 0.01 | 0.00 | 84 | 1022.1 |
| 20260905225602 | 54 | 269 | 1.0 | 2.0 | 0.00 | 0.01 | 0.01 | 84 | 1021.9 |
| 20260905225103 | 54 | 269 | 2.0 | 2.0 | 0.00 | 0.01 | 0.01 | 84 | 1021.9 |
| 20260905224828 | 54 | 269 | 2.0 | 2.0 | 0.00 | 0.01 | 0.01 | 83 | 1021.9 |
| 20260905224102 | 55 | 269 | 1.0 | 2.0 | 0.00 | 0.01 | 0.01 | 83 | 1021.8 |
| 20260905223602 | 55 | 269 | 0.0 | 1.0 | 0.00 | 0.01 | 0.01 | 83 | 1021.9 |
| 20260905222604 | 56 | 269 | 0.0 | 0.0 | 0.00 | 0.01 | 0.01 | 83 | 1021.9 |
| 20260905222103 | 56 | 269 | 0.0 | 2.0 | 0.00 | 0.01 | 0.01 | 83 | 1021.9 |
| 20260905221603 | 56 | 269 | 1.0 | 2.0 | 0.00 | 0.01 | 0.01 | 83 | 1022.0 |
| 20260905221102 | 56 | 269 | 1.0 | 3.0 | 0.00 | 0.01 | 0.01 | 83 | 1022.1 |
| 20260905220604 | 56 | 269 | 1.0 | 3.0 | 0.00 | 0.01 | 0.01 | 83 | 1022.0 |
| 20260905215603 | 56 | 268 | 2.0 | 3.0 | 0.00 | 0.01 | 0.01 | 82 | 1022.0 |
| 20260905215102 | 56 | 269 | 2.0 | 4.0 | 0.00 | 0.01 | 0.01 | 82 | 1022.0 |
| 20260905214602 | 56 | 268 | 3.0 | 5.0 | 0.00 | 0.01 | 0.01 | 82 | 1022.1 |
| 20260905214102 | 56 | 269 | 2.0 | 5.0 | 0.00 | 0.01 | 0.01 | 82 | 1022.1 |
| 20260905213602 | 56 | 268 | 3.0 | 5.0 | 0.00 | 0.01 | 0.01 | 82 | 1022.2 |
| 20260905213102 | 56 | 271 | 2.0 | 4.0 | 0.00 | 0.01 | 0.01 | 81 | 1022.2 |
| 20260905212603 | 56 | 271 | 3.0 | 4.0 | 0.00 | 0.01 | 0.01 | 81 | 1022.2 |
| 20260905212329 | 56 | 271 | 2.0 | 4.0 | 0.00 | 0.01 | 0.01 | 81 | 1022.1 |
| 20260905211103 | 56 | 271 | 2.0 | 4.0 | 0.00 | 0.01 | 0.01 | 80 | 1022.2 |
| 20260905210602 | 56 | 271 | 2.0 | 4.0 | 0.00 | 0.01 | 0.01 | 80 | 1022.3 |
| 20260905210104 | 56 | 271 | 3.0 | 4.0 | 0.00 | 0.01 | 0.01 | 80 | 1022.3 |
| 20260905205602 | 56 | 272 | 2.0 | 4.0 | 0.00 | 0.01 | 0.01 | 80 | 1022.3 |
| 20260905205331 | 56 | 272 | 3.0 | 5.0 | 0.00 | 0.01 | 0.01 | 80 | 1022.2 |
| 20260905204602 | 56 | 271 | 3.0 | 5.0 | 0.00 | 0.01 | 0.01 | 80 | 1022.1 |
| 20260905204102 | 56 | 285 | 3.0 | 5.0 | 0.00 | 0.01 | 0.01 | 80 | 1022.0 |
| 20260905203606 | 56 | 292 | 3.0 | 5.0 | 0.00 | 0.01 | 0.01 | 81 | 1021.9 |
| 20260905203107 | 56 | 299 | 4.0 | 5.0 | 0.00 | 0.01 | 0.01 | 81 | 1022.0 |
| 20260905202823 | 56 | 299 | 2.0 | 4.0 | 0.00 | 0.01 | 0.01 | 82 | 1021.8 |
| 20260905202101 | 56 | 300 | 3.0 | 4.0 | 0.00 | 0.01 | 0.01 | 81 | 1021.9 |
| 20260905201558 | 56 | 300 | 2.0 | 4.0 | 0.00 | 0.01 | 0.01 | 81 | 1021.9 |
| 20260905201058 | 56 | 300 | 2.0 | 4.0 | 0.00 | 0.01 | 0.01 | 81 | 1021.9 |
| 20260905200553 | 56 | 300 | 1.0 | 3.0 | 0.00 | 0.01 | 0.01 | 80 | 1022.0 |
| 20260905200058 | 56 | 300 | 2.0 | 3.0 | 0.00 | 0.01 | 0.01 | 80 | 1022.1 |
| 20260905195549 | 56 | 300 | 2.0 | 3.0 | 0.00 | 0.01 | 0.01 | 79 | 1022.0 |
| 20260905195316 | 56 | 300 | 2.0 | 3.0 | 0.00 | 0.01 | 0.01 | 79 | 1022.0 |
| 20260905194549 | 57 | 300 | 1.0 | 3.0 | 0.00 | 0.01 | 0.01 | 78 | 1022.0 |
| 20260905194048 | 57 | 300 | 1.0 | 3.0 | 0.00 | 0.01 | 0.01 | 78 | 1021.9 |
| 20260905193546 | 57 | 300 | 2.0 | 4.0 | 0.00 | 0.01 | 0.01 | 77 | 1021.9 |
| 20260905193050 | 57 | 300 | 2.0 | 4.0 | 0.00 | 0.01 | 0.01 | 77 | 1021.7 |
| 20260905192547 | 58 | 300 | 2.0 | 4.0 | 0.00 | 0.01 | 0.01 | 77 | 1021.7 |
| 20260905192047 | 58 | 300 | 2.0 | 4.0 | 0.00 | 0.01 | 0.01 | 76 | 1021.8 |
| 20260905191548 | 58 | 299 | 2.0 | 4.0 | 0.00 | 0.01 | 0.01 | 76 | 1021.8 |
| 20260905191047 | 59 | 299 | 2.0 | 4.0 | 0.00 | 0.01 | 0.01 | 75 | 1021.7 |
| 20260905190547 | 59 | 299 | 2.0 | 4.0 | 0.00 | 0.01 | 0.01 | 75 | 1021.7 |
| 20260905190048 | 59 | 299 | 2.0 | 4.0 | 0.00 | 0.01 | 0.01 | 75 | 1021.7 |
| 20260905185547 | 59 | 300 | 2.0 | 6.0 | 0.00 | 0.01 | 0.01 | 75 | 1021.7 |
| 20260905185042 | 60 | 300 | 3.0 | 7.0 | 0.00 | 0.01 | 0.01 | 74 | 1021.7 |
| 20260905184540 | 60 | 303 | 3.0 | 7.0 | 0.00 | 0.01 | 0.01 | 75 | 1021.5 |
| 20260905184040 | 60 | 289 | 3.0 | 7.0 | 0.00 | 0.01 | 0.01 | 74 | 1021.5 |
| 20260905183542 | 60 | 262 | 3.0 | 7.0 | 0.00 | 0.01 | 0.01 | 74 | 1021.5 |
| 20260905183042 | 60 | 264 | 6.0 | 7.0 | 0.00 | 0.01 | 0.01 | 74 | 1021.5 |
| 20260905182536 | 60 | 275 | 4.0 | 6.0 | 0.00 | 0.01 | 0.01 | 74 | 1021.5 |
| 20260905182257 | 60 | 278 | 2.0 | 7.0 | 0.00 | 0.01 | 0.01 | 74 | 1021.6 |
| 20260905181537 | 61 | 279 | 3.0 | 9.0 | 0.00 | 0.01 | 0.01 | 74 | 1021.6 |
| 20260905181036 | 61 | 276 | 3.0 | 9.0 | 0.00 | 0.01 | 0.01 | 74 | 1021.5 |
| 20260905180533 | 61 | 282 | 5.0 | 9.0 | 0.00 | 0.01 | 0.01 | 74 | 1021.7 |
| 20260905180035 | 61 | 285 | 5.0 | 9.0 | 0.00 | 0.01 | 0.01 | 73 | 1021.9 |
| 20260905175534 | 61 | 252 | 3.0 | 7.0 | 0.00 | 0.01 | 0.01 | 73 | 1021.9 |
| 20260905175032 | 61 | 278 | 5.0 | 9.0 | 0.00 | 0.01 | 0.01 | 72 | 1021.7 |
| 20260905174532 | 61 | 266 | 4.0 | 9.0 | 0.00 | 0.01 | 0.01 | 73 | 1021.6 |
| 20260905174034 | 61 | 281 | 6.0 | 11.0 | 0.00 | 0.01 | 0.01 | 73 | 1021.7 |
| 20260905173532 | 62 | 314 | 5.0 | 11.0 | 0.00 | 0.01 | 0.01 | 73 | 1021.8 |
| 20260905173031 | 62 | 281 | 6.0 | 10.0 | 0.00 | 0.01 | 0.01 | 74 | 1021.9 |
| 20260905172531 | 62 | 278 | 6.0 | 12.0 | 0.00 | 0.01 | 0.01 | 74 | 1021.6 |
| 20260905172032 | 62 | 261 | 6.0 | 12.0 | 0.00 | 0.01 | 0.01 | 73 | 1021.6 |
| 20260905171532 | 62 | 264 | 4.0 | 12.0 | 0.00 | 0.01 | 0.01 | 72 | 1021.5 |
| 20260905171032 | 62 | 279 | 6.0 | 13.0 | 0.00 | 0.01 | 0.01 | 72 | 1021.4 |
| 20260905170753 | 62 | 257 | 8.0 | 13.0 | 0.00 | 0.01 | 0.01 | 71 | 1021.4 |
| 20260905170032 | 62 | 285 | 6.0 | 12.0 | 0.00 | 0.01 | 0.01 | 73 | 1021.5 |
| 20260905165532 | 62 | 275 | 7.0 | 13.0 | 0.00 | 0.01 | 0.01 | 73 | 1021.6 |
| 20260905165259 | 62 | 266 | 7.0 | 13.0 | 0.00 | 0.01 | 0.01 | 72 | 1021.6 |
| 20260905164531 | 63 | 272 | 6.0 | 13.0 | 0.00 | 0.01 | 0.01 | 71 | 1021.3 |
| 20260905164032 | 63 | 261 | 10.0 | 14.0 | 0.00 | 0.01 | 0.01 | 70 | 1021.1 |
| 20260905163533 | 64 | 286 | 8.0 | 15.0 | 0.00 | 0.01 | 0.01 | 69 | 1021.2 |
| 20260905163031 | 64 | 252 | 10.0 | 15.0 | 0.00 | 0.01 | 0.01 | 70 | 1021.1 |
| 20260905162533 | 63 | 231 | 9.0 | 14.0 | 0.00 | 0.01 | 0.01 | 70 | 1021.1 |
| 20260905162030 | 63 | 237 | 8.0 | 14.0 | 0.00 | 0.01 | 0.01 | 70 | 1021.0 |
| 20260905161751 | 63 | 247 | 4.0 | 12.0 | 0.00 | 0.01 | 0.01 | 71 | 1021.0 |
| 20260905161028 | 63 | 272 | 6.0 | 15.0 | 0.00 | 0.01 | 0.01 | 70 | 1021.0 |
| 20260905160528 | 63 | 272 | 5.0 | 15.0 | 0.00 | 0.01 | 0.01 | 69 | 1021.0 |
| 20260905160027 | 63 | 262 | 7.0 | 14.0 | 0.00 | 0.01 | 0.01 | 69 | 1021.0 |
| 20260905155527 | 63 | 275 | 8.0 | 19.0 | 0.00 | 0.01 | 0.01 | 69 | 1021.0 |
| 20260905155026 | 63 | 235 | 10.0 | 19.0 | 0.00 | 0.01 | 0.01 | 68 | 1020.8 |
| 20260905154527 | 63 | 292 | 8.0 | 19.0 | 0.00 | 0.01 | 0.01 | 69 | 1020.8 |
| 20260905154028 | 64 | 271 | 11.0 | 19.0 | 0.00 | 0.01 | 0.01 | 67 | 1020.7 |
| 20260905153526 | 64 | 278 | 9.0 | 19.0 | 0.00 | 0.01 | 0.01 | 67 | 1020.7 |
| 20260905153026 | 64 | 244 | 12.0 | 19.0 | 0.00 | 0.01 | 0.01 | 66 | 1020.8 |
| 20260905152745 | 65 | 286 | 9.0 | 17.0 | 0.00 | 0.01 | 0.01 | 66 | 1020.8 |
| 20260905152023 | 65 | 245 | 8.0 | 17.0 | 0.00 | 0.01 | 0.01 | 66 | 1020.8 |
| 20260905151522 | 65 | 266 | 11.0 | 17.0 | 0.00 | 0.01 | 0.01 | 66 | 1020.8 |
| 20260905151239 | 65 | 285 | 8.0 | 16.0 | 0.00 | 0.01 | 0.01 | 68 | 1020.7 |
| 20260905150519 | 65 | 303 | 7.0 | 16.0 | 0.00 | 0.01 | 0.01 | 66 | 1020.8 |
| 20260905150020 | 66 | 247 | 9.0 | 16.0 | 0.00 | 0.01 | 0.01 | 66 | 1020.7 |
| 20260905145518 | 65 | 238 | 9.0 | 16.0 | 0.00 | 0.01 | 0.01 | 66 | 1020.8 |
| 20260905145018 | 66 | 295 | 10.0 | 19.0 | 0.00 | 0.01 | 0.01 | 66 | 1020.8 |
| 20260905144517 | 66 | 305 | 6.0 | 19.0 | 0.00 | 0.01 | 0.01 | 67 | 1020.8 |
| 20260905144017 | 65 | 272 | 9.0 | 18.0 | 0.00 | 0.01 | 0.01 | 65 | 1020.8 |
| 20260905143518 | 65 | 275 | 9.0 | 21.0 | 0.00 | 0.01 | 0.01 | 66 | 1020.7 |